Погода в Отрадовке

Украина / Херсонская область     46°22′30″N   34°26′48″E
темп.,
°C
ветер,
м/с
пор.,
м/с
влажн.,
%
обл.,
%
осадки,
мм/ч
давл.,
гПа
погр.,
м
16 мая, вс
вс1600:00+15юв1175100 0.0 101211
03:00+14ссв3377100 0.0 101219
06:00+14ссв3571100 0.0 101184
09:00+21св565383 0.0 1011437
12:00+26св453782 0.0 10091461
15:00+27св5635100 0.0 10072030
18:00+26всв0350100 0.1 1005155
21:00+18сз469094 2.9 1004107
17 мая, пн
пн1700:00+18ссв3792100 2.7 1003155
03:00+18св71390100 5.3 1000358
06:00+16з359614 0.2 1002127
09:00+19юз3582100 0.8 1002662
12:00+22ююз8868100 0.1 10041169
15:00+22юз910586 0.1 10051253
18:00+20зюз6106469 0.0 10061117
21:00+15юз49795 0.0 1008224
18 мая, вт
вт1800:00+14ююз47895 0.0 1009147
03:00+13ююз3991100 0.0 1008184
06:00+13ююв36905 0.0 1008155
09:00+19ю56642 0.0 1008628
12:00+21ююз7858100 0.1 10081378
15:00+16ю51188100 1.2 1008656
18:00+17ю7118266 1.0 1007803
21:00+14юз61384100 1.1 1008484
19 мая, ср
ср1900:00+14юз6138094 0.0 1007437
03:00+12зюз5119167 0.0 1008331
06:00+11зюз61285100 0.0 1008567
09:00+15зюз91268100 0.3 10091391
12:00+15з8146998 0.1 10111365
15:00+18зюз9135540 0.8 10111916
18:00+17зюз696096 0.1 1012818
21:00+13зюз49740 0.1 1014170
20 мая, чт
чт2000:00+11юз368895 0.0 101491
03:00+11юз2287100 0.0 101412
06:00+12юв2281100 0.0 101325
09:00+17в5763100 0.0 1012519
12:00+21вюв894676 0.0 10111183
15:00+21вюв9114197 0.0 10091066
18:00+19вюв813610 0.0 1008816
21:00+17вюв6157914 0.0 1006421